Previsão horária em Plosy

Hoje, 26 Fevereiro, Sexta-feira

Tempo Temperatura Precipitação Vento Pressão Humidade
00:00 +6°C° 0 mm 4 m/s 751 mmHg 83%
01:00 +6°C° 0 mm 4 m/s 751 mmHg 84%
02:00 +5°C° 0 mm 4 m/s 750 mmHg 86%
03:00 +5°C° 0 mm 3 m/s 750 mmHg 87%
04:00 +5°C° 0 mm 3 m/s 750 mmHg 89%
05:00 +4°C° 0 mm 3 m/s 750 mmHg 90%
06:00 +4°C° 0 mm 3 m/s 750 mmHg 91%
07:00 +4°C° 0 mm 3 m/s 750 mmHg 92%
08:00 +5°C° 0 mm 3 m/s 750 mmHg 88%
09:00 +8°C° 0 mm 3 m/s 750 mmHg 84%
10:00 +10°C° 0 mm 3 m/s 750 mmHg 81%
11:00 +10°C° 0 mm 3 m/s 749 mmHg 78%
12:00 +11°C° 0 mm 3 m/s 749 mmHg 76%
13:00 +12°C° 0 mm 3 m/s 749 mmHg 73%
14:00 +11°C° 0.2 mm 3 m/s 749 mmHg 79%
15:00 +8°C° 0.2 mm 4 m/s 748 mmHg 84%
16:00 +6°C° 0.2 mm 4 m/s 748 mmHg 89%
17:00 +6°C° 0.2 mm 4 m/s 748 mmHg 86%
18:00 +5°C° 0.2 mm 4 m/s 749 mmHg 84%
19:00 +5°C° 0.2 mm 5 m/s 749 mmHg 82%
20:00 +5°C° 0 mm 5 m/s 749 mmHg 82%
21:00 +3°C° 0 mm 5 m/s 749 mmHg 83%
22:00 +3°C° 0 mm 5 m/s 749 mmHg 83%
23:00 +2°C° 0 mm 5 m/s 749 mmHg 85%

Amanhã, 27 Fevereiro, Sábado

Tempo Temperatura Precipitação Vento Pressão Humidade
00:00 +2°C° 0 mm 5 m/s 750 mmHg 86%
01:00 +1°C° 0 mm 5 m/s 750 mmHg 87%
02:00 +1°C° 0 mm 5 m/s 750 mmHg 86%
03:00 +1°C° 0 mm 5 m/s 749 mmHg 85%
04:00 +1°C° 0 mm 6 m/s 749 mmHg 85%
05:00 +1°C° 0 mm 6 m/s 749 mmHg 85%
06:00 +1°C° 0 mm 6 m/s 749 mmHg 85%
07:00 +1°C° 0 mm 6 m/s 750 mmHg 85%
08:00 +2°C° 0 mm 7 m/s 750 mmHg 83%
09:00 +2°C° 0 mm 7 m/s 750 mmHg 82%
10:00 +2°C° 0 mm 7 m/s 750 mmHg 80%
11:00 +3°C° 0 mm 7 m/s 750 mmHg 77%
12:00 +3°C° 0 mm 7 m/s 751 mmHg 75%
13:00 +3°C° 0 mm 7 m/s 751 mmHg 72%
14:00 +3°C° 0 mm 7 m/s 751 mmHg 70%
15:00 +3°C° 0 mm 7 m/s 751 mmHg 69%
16:00 +3°C° 0 mm 7 m/s 751 mmHg 68%
17:00 +2°C° 0 mm 6 m/s 752 mmHg 71%
18:00 +2°C° 0 mm 5 m/s 752 mmHg 73%
19:00 +1°C° 0 mm 5 m/s 752 mmHg 76%
20:00 +1°C° 0 mm 5 m/s 753 mmHg 79%
21:00 0°C° 0 mm 5 m/s 753 mmHg 82%
22:00 -1°C° 0 mm 4 m/s 753 mmHg 85%
23:00 -1°C° 0 mm 4 m/s 753 mmHg 87%

Depois de amanhã, 28 Fevereiro, Domingo

Tempo Temperatura Precipitação Vento Pressão Humidade
00:00 -2°C° 0 mm 4 m/s 754 mmHg 89%
01:00 -2°C° 0 mm 4 m/s 754 mmHg 91%
02:00 -3°C° 0 mm 4 m/s 754 mmHg 92%
03:00 -3°C° 0 mm 4 m/s 754 mmHg 93%
04:00 -3°C° 0 mm 4 m/s 754 mmHg 94%
05:00 -3°C° 0 mm 4 m/s 754 mmHg 93%
06:00 -2°C° 0 mm 3 m/s 755 mmHg 92%
07:00 -2°C° 0 mm 3 m/s 755 mmHg 91%
08:00 -1°C° 0 mm 3 m/s 755 mmHg 85%
09:00 -1°C° 0 mm 4 m/s 755 mmHg 80%
10:00 0°C° 0 mm 4 m/s 755 mmHg 74%
11:00 +1°C° 0 mm 4 m/s 755 mmHg 69%
12:00 +3°C° 0 mm 4 m/s 755 mmHg 63%
13:00 +4°C° 0 mm 4 m/s 755 mmHg 58%
14:00 +4°C° 0 mm 4 m/s 755 mmHg 60%
15:00 +4°C° 0 mm 4 m/s 755 mmHg 63%
16:00 +4°C° 0 mm 4 m/s 754 mmHg 66%
17:00 +3°C° 0 mm 3 m/s 754 mmHg 71%
18:00 +2°C° 0 mm 3 m/s 755 mmHg 76%
19:00 +1°C° 0 mm 3 m/s 755 mmHg 82%
20:00 0°C° 0 mm 3 m/s 755 mmHg 83%
21:00 0°C° 0 mm 3 m/s 755 mmHg 85%
22:00 0°C° 0 mm 3 m/s 755 mmHg 87%
23:00 0°C° 0 mm 3 m/s 755 mmHg 87%

1 Março, Segunda-feira

Tempo Temperatura Precipitação Vento Pressão Humidade
00:00 0°C° 0 mm 3 m/s 755 mmHg 88%
01:00 0°C° 0 mm 3 m/s 756 mmHg 88%
02:00 0°C° 0 mm 3 m/s 756 mmHg 90%
03:00 0°C° 0 mm 3 m/s 756 mmHg 92%
04:00 0°C° 0 mm 3 m/s 756 mmHg 94%
05:00 0°C° 0 mm 3 m/s 756 mmHg 95%
06:00 +1°C° 0 mm 2 m/s 756 mmHg 95%
07:00 +1°C° 0 mm 2 m/s 756 mmHg 96%
08:00 +2°C° 0 mm 2 m/s 757 mmHg 92%
09:00 +3°C° 0 mm 2 m/s 757 mmHg 88%
10:00 +4°C° 0 mm 2 m/s 757 mmHg 84%
11:00 +5°C° 0 mm 2 m/s 758 mmHg 79%
12:00 +6°C° 0 mm 2 m/s 758 mmHg 75%
13:00 +7°C° 0 mm 2 m/s 758 mmHg 70%
14:00 +7°C° 0 mm 2 m/s 758 mmHg 70%
15:00 +7°C° 0 mm 2 m/s 757 mmHg 71%
16:00 +7°C° 0 mm 2 m/s 757 mmHg 72%
17:00 +6°C° 0 mm 2 m/s 757 mmHg 76%
18:00 +5°C° 0 mm 2 m/s 758 mmHg 81%
19:00 +5°C° 0 mm 1 m/s 758 mmHg 86%
20:00 +4°C° 0 mm 1 m/s 758 mmHg 87%
21:00 +4°C° 0 mm 1 m/s 758 mmHg 88%
22:00 +3°C° 0 mm 1 m/s 758 mmHg 89%
23:00 +3°C° 0 mm 1 m/s 758 mmHg 89%

2 Março, Terça-feira

Tempo Temperatura Precipitação Vento Pressão Humidade
00:00 +2°C° 0 mm 2 m/s 758 mmHg 89%
01:00 +2°C° 0 mm 2 m/s 758 mmHg 90%
02:00 +2°C° 0 mm 2 m/s 758 mmHg 90%
03:00 +1°C° 0 mm 2 m/s 758 mmHg 89%
04:00 +1°C° 0 mm 2 m/s 758 mmHg 89%
05:00 +1°C° 0 mm 2 m/s 758 mmHg 89%
06:00 +1°C° 0 mm 2 m/s 758 mmHg 89%
07:00 +1°C° 0 mm 2 m/s 757 mmHg 89%
08:00 +3°C° 0 mm 2 m/s 758 mmHg 83%
09:00 +5°C° 0 mm 2 m/s 758 mmHg 77%
10:00 +6°C° 0 mm 2 m/s 758 mmHg 71%
11:00 +7°C° 0 mm 2 m/s 758 mmHg 67%
12:00 +8°C° 0 mm 2 m/s 757 mmHg 62%
13:00 +10°C° 0 mm 2 m/s 757 mmHg 57%
14:00 +9°C° 0 mm 2 m/s 757 mmHg 59%
15:00 +9°C° 0 mm 2 m/s 756 mmHg 60%
16:00 +9°C° 0 mm 2 m/s 756 mmHg 62%
17:00 +8°C° 0 mm 2 m/s 756 mmHg 66%
18:00 +6°C° 0 mm 2 m/s 756 mmHg 70%
19:00 +5°C° 0 mm 2 m/s 756 mmHg 75%
20:00 +5°C° 0 mm 2 m/s 756 mmHg 75%
21:00 +4°C° 0 mm 2 m/s 756 mmHg 74%
22:00 +4°C° 0 mm 2 m/s 756 mmHg 74%
23:00 +4°C° 0 mm 2 m/s 755 mmHg 74%

3 Março, Quarta-feira

Tempo Temperatura Precipitação Vento Pressão Humidade
00:00 +3°C° 0 mm 2 m/s 755 mmHg 74%
01:00 +2°C° 0 mm 3 m/s 755 mmHg 74%
02:00 +2°C° 0 mm 3 m/s 755 mmHg 76%
03:00 +1°C° 0 mm 3 m/s 754 mmHg 78%
04:00 +1°C° 0 mm 3 m/s 754 mmHg 81%
05:00 +1°C° 0 mm 3 m/s 754 mmHg 81%
06:00 +1°C° 0 mm 3 m/s 754 mmHg 82%
07:00 0°C° 0 mm 3 m/s 754 mmHg 82%
08:00 +2°C° 0 mm 3 m/s 754 mmHg 76%
09:00 +4°C° 0 mm 3 m/s 754 mmHg 69%
10:00 +7°C° 0 mm 3 m/s 753 mmHg 63%
11:00 +8°C° 0 mm 3 m/s 753 mmHg 60%
12:00 +9°C° 0 mm 3 m/s 753 mmHg 57%
13:00 +10°C° 0 mm 4 m/s 752 mmHg 54%
14:00 +10°C° 0 mm 3 m/s 752 mmHg 55%
15:00 +10°C° 0 mm 3 m/s 752 mmHg 57%
16:00 +9°C° 0 mm 3 m/s 751 mmHg 59%
17:00 +8°C° 0 mm 3 m/s 751 mmHg 64%
18:00 +7°C° 0 mm 3 m/s 751 mmHg 69%
19:00 +5°C° 0 mm 3 m/s 751 mmHg 74%
20:00 +4°C° 0 mm 3 m/s 751 mmHg 76%
21:00 +4°C° 0 mm 3 m/s 751 mmHg 79%
22:00 +4°C° 0 mm 3 m/s 751 mmHg 81%
23:00 +3°C° 0 mm 3 m/s 750 mmHg 84%
Mostrar mais

Necessitamos do seu Consentimento

A Meteoprog e os seus Fornecedores de Serviços podem armazenar e aceder a dados pessoais como cookies, identificadores do dispositivo ou outras tecnologias semelhantes existentes no seu dispositivo e processar estes dados para personalizar conteúdos e anúncios, assim como funcionalidades nas redes sociais e análise de tráfego.

  • Armazenar e/ou aceder a informações no seu dispositivo

    Os cookies, identificadores do dispositivo ou outras informações podem ser armazenados ou acedidos no seu dispositivo, para os fins acima indicados.

  • Anúncios e conteúdos personalizados, medição de anúncios e conteúdos, dados sobre o público-alvo e desenvolvimento de produtos

    Os anúncios e os conteúdos podem ser personalizados com base num perfil. Podem ser adicionados dados adicionais para uma maior personalização dos anúncios e dos conteúdos. A eficácia dos anúncios e dos conteúdos pode ser medida. Podem ser obtidas informações sobre o público que visualizou os anúncios e os conteúdos. Estes dados podem ser usados para desenvolver ou melhorar sistemas, softwares ou a experiência do utilizador.

Ao clicar em "Eu concordo”, permitirá o uso de cookies, identificadores do dispositivo e web beacons mencionados ou outras tecnologias semelhantes. As configurações do navegador do seu dispositivo podem ser alteradas.

Para certos fins, podem ser invocados interesses legítimos ao invés de consentimento. Pode ler mais informação sobre este assunto na nossa Política de Privacidade e Cookies.